Location: Bergheim
(50.9593°N, 6.6400°E)
Time: 23:55:41
(UTC+01:00)

ISS - Visible Passes

Search period start: 19 November 2019 00:00
Search period end: 29 November 2019 00:00
Orbit: 412 x 421 km, 51.6° (Epoch: 20 November)

Date Brightness Start Highest point End Pass type
(mag) Time Alt. Az. Time Alt. Az. Time Alt. Az.
22 Nov -1.3 18:29:10 10° SSE 18:29:56 12° SSE 18:29:56 12° SSE visible
23 Nov -1.4 19:15:25 10° SW 19:16:37 19° SSW 19:16:37 19° SSW visible
24 Nov -2.4 18:27:24 10° SSW 18:30:14 25° SE 18:30:18 25° SE visible
25 Nov -1.8 17:39:39 10° S 17:41:58 18° SE 17:43:54 12° ESE visible
25 Nov -2.0 19:14:56 10° WSW 19:16:48 30° SW 19:16:48 30° SW visible
26 Nov -3.3 18:26:38 10° SW 18:29:53 47° SSE 18:30:21 43° SE visible
26 Nov -0.2 20:03:10 10° W 20:03:15 11° W 20:03:15 11° W visible
27 Nov -2.7 17:38:26 10° SW 17:41:30 34° SSE 17:43:51 15° E visible
27 Nov -2.1 19:14:42 10° W 19:16:45 34° W 19:16:45 34° W visible
28 Nov -3.8 18:26:15 10° WSW 18:29:36 78° SSE 18:30:13 56° E visible
28 Nov -0.2 20:03:02 10° W 20:03:07 11° W 20:03:07 11° W visible
